DLH439 KDFW-EDDF

Flight info

Callsign DLH439
Flight time N/A
Altitude 35000
Route ZACHH4 BSKAT DCT TWITS DCT DENNI DCT HEVAN DCT COLTZ DCT FOXEE DCT EXTOL DCT BOS DCT TUSKY N429A ELSIR/M083F370 NATV GISTI/N0473F370 DCT LONDU DCT LUNIG/N0474F390 DCT ENJEX DCT ADHAV DCT AXNEF DCT ZIPWE DCT OZZIL DCT SAWPE Q63 CPT UL9 BIG L607 KONAN DCT KOK UL607 FERDI DCT SPI T180 NIVNU/N0426F230 T847 IMCOM IMCOM1B
Aircraft A346/H-SDE2E3FGHIJ3J4J5M1RWXY/LB1D1

Departure

Time N/A
Airport Dallas Fort Worth International Airport (KDFW)

Arrival

Time 2026-04-19 05:05
Airport Frankfurt Main Airport (EDDF)
Time Latitude Longitude Altitude Speed Heading
2026-04-19 03:09 52.99780 -13.95165 38943 ft 483 kts 93°
2026-04-19 03:09 52.99509 -13.89597 39159 ft 483 kts 94°
2026-04-19 03:09 52.99226 -13.84029 39316 ft 483 kts 94°
2026-04-19 03:10 52.98648 -13.72867 39339 ft 485 kts 94°
2026-04-19 03:10 52.98067 -13.61752 39351 ft 486 kts 94°
2026-04-19 03:11 52.97475 -13.50566 39360 ft 486 kts 94°
2026-04-19 03:11 52.96873 -13.39395 39363 ft 484 kts 94°
2026-04-19 03:12 52.96262 -13.28234 39365 ft 484 kts 94°
2026-04-19 03:12 52.95642 -13.17140 39360 ft 486 kts 94°
2026-04-19 03:13 52.95011 -13.05963 39360 ft 486 kts 94°
2026-04-19 03:13 52.94366 -12.94771 39361 ft 486 kts 94°
2026-04-19 03:14 52.93712 -12.83604 39364 ft 486 kts 94°
2026-04-19 03:14 52.93045 -12.72433 39371 ft 486 kts 94°
2026-04-19 03:15 52.92368 -12.61254 39379 ft 487 kts 94°
2026-04-19 03:15 52.91653 -12.50152 39377 ft 487 kts 96°
2026-04-19 03:16 52.90545 -12.39038 39373 ft 488 kts 98°
2026-04-19 03:16 52.89369 -12.27939 39372 ft 488 kts 98°
2026-04-19 03:17 52.88185 -12.16839 39385 ft 489 kts 98°
2026-04-19 03:17 52.86991 -12.05729 39381 ft 489 kts 98°
2026-04-19 03:18 52.85788 -11.94625 39379 ft 489 kts 98°
2026-04-19 03:18 52.84573 -11.83518 39386 ft 489 kts 98°
2026-04-19 03:19 52.83358 -11.72503 39386 ft 489 kts 99°
2026-04-19 03:19 52.82122 -11.61410 39392 ft 491 kts 99°
2026-04-19 03:20 52.80874 -11.50288 39387 ft 491 kts 99°
2026-04-19 03:20 52.79616 -11.39175 39391 ft 491 kts 99°
2026-04-19 03:21 52.78346 -11.28060 39391 ft 491 kts 99°
2026-04-19 03:21 52.77065 -11.16950 39391 ft 491 kts 99°
2026-04-19 03:22 52.75772 -11.05835 39397 ft 493 kts 99°
2026-04-19 03:22 52.74466 -10.94708 39388 ft 493 kts 99°
2026-04-19 03:23 52.73150 -10.83581 39395 ft 493 kts 99°
2026-04-19 03:23 52.71824 -10.72469 39396 ft 493 kts 99°
2026-04-19 03:24 52.70496 -10.61426 39400 ft 493 kts 100°
2026-04-19 03:24 52.69148 -10.50318 39399 ft 493 kts 100°
2026-04-19 03:25 52.67790 -10.39216 39399 ft 493 kts 100°
2026-04-19 03:25 52.66422 -10.28133 39400 ft 493 kts 100°
2026-04-19 03:26 52.65044 -10.17047 39397 ft 493 kts 100°
2026-04-19 03:26 52.63654 -10.05954 39413 ft 493 kts 100°
2026-04-19 03:27 52.62254 -9.94872 39404 ft 495 kts 101°
2026-04-19 03:27 52.60845 -9.83829 39404 ft 495 kts 101°
2026-04-19 03:28 52.59419 -9.72720 39400 ft 496 kts 101°
2026-04-19 03:28 52.57980 -9.61598 39402 ft 496 kts 101°
2026-04-19 03:29 52.56530 -9.50488 39414 ft 496 kts 101°
2026-04-19 03:29 52.55063 -9.39335 39409 ft 500 kts 101°
2026-04-19 03:30 52.53581 -9.28150 39410 ft 500 kts 101°
2026-04-19 03:30 52.52088 -9.16967 39416 ft 500 kts 101°
2026-04-19 03:31 52.50585 -9.05796 39418 ft 500 kts 101°
2026-04-19 03:31 52.49082 -8.94718 39425 ft 501 kts 101°
2026-04-19 03:32 52.47550 -8.83509 39417 ft 502 kts 101°
2026-04-19 03:32 52.46006 -8.72288 39408 ft 502 kts 101°
2026-04-19 03:33 52.44454 -8.61108 39400 ft 502 kts 102°
2026-04-19 03:33 52.42902 -8.49997 39404 ft 502 kts 102°
2026-04-19 03:34 52.41327 -8.38820 39407 ft 504 kts 102°
2026-04-19 03:34 52.39734 -8.27606 39414 ft 504 kts 102°
2026-04-19 03:35 52.38138 -8.16416 39410 ft 504 kts 102°
2026-04-19 03:35 52.36530 -8.05217 39408 ft 504 kts 102°
2026-04-19 03:36 52.34912 -7.94035 39428 ft 504 kts 102°
2026-04-19 03:36 52.33276 -7.82827 39406 ft 506 kts 102°
2026-04-19 03:37 52.31628 -7.71604 39403 ft 507 kts 102°
2026-04-19 03:37 52.29969 -7.60397 39403 ft 507 kts 102°
2026-04-19 03:38 52.28299 -7.49195 39391 ft 507 kts 102°
2026-04-19 03:38 52.26631 -7.38086 39400 ft 507 kts 102°
2026-04-19 03:39 52.24936 -7.26875 39407 ft 507 kts 102°
2026-04-19 03:39 52.23524 -7.17584 39394 ft 507 kts 102°
2026-04-19 03:40 52.21812 -7.06392 39399 ft 507 kts 103°
2026-04-19 03:40 52.20088 -6.95207 39389 ft 507 kts 103°
2026-04-19 03:41 52.18353 -6.84037 39396 ft 508 kts 103°
2026-04-19 03:41 52.16604 -6.72847 39390 ft 509 kts 103°
2026-04-19 03:42 52.14857 -6.61743 39384 ft 509 kts 103°
2026-04-19 03:42 52.13087 -6.50572 39384 ft 509 kts 103°
2026-04-19 03:43 52.11306 -6.39411 39394 ft 509 kts 103°
2026-04-19 03:43 52.09515 -6.28261 39377 ft 508 kts 103°
2026-04-19 03:44 52.07715 -6.17129 39378 ft 508 kts 103°
2026-04-19 03:44 52.05902 -6.06004 39378 ft 508 kts 103°
2026-04-19 03:45 52.04043 -5.94923 39378 ft 508 kts 104°
2026-04-19 03:45 52.02147 -5.83916 39386 ft 508 kts 104°
2026-04-19 03:46 52.00233 -5.72859 39379 ft 508 kts 104°
2026-04-19 03:46 51.98309 -5.61792 39379 ft 508 kts 104°
2026-04-19 03:47 51.96382 -5.50764 39376 ft 508 kts 104°
2026-04-19 03:47 51.94441 -5.39724 39379 ft 508 kts 104°
2026-04-19 03:48 51.92487 -5.28696 39368 ft 508 kts 104°
2026-04-19 03:48 51.90831 -5.17586 39373 ft 506 kts 99°
2026-04-19 03:49 51.89532 -5.06452 39373 ft 506 kts 99°
2026-04-19 03:49 51.88229 -4.95256 39373 ft 506 kts 99°
2026-04-19 03:50 51.86905 -4.84052 39380 ft 506 kts 99°
2026-04-19 03:50 51.85568 -4.72857 39376 ft 506 kts 99°
2026-04-19 03:51 51.84215 -4.61653 39379 ft 506 kts 99°
2026-04-19 03:51 51.82854 -4.50473 39380 ft 506 kts 99°
2026-04-19 03:52 51.81484 -4.39296 39372 ft 506 kts 99°
2026-04-19 03:52 51.80103 -4.28118 39376 ft 507 kts 99°
2026-04-19 03:53 51.78717 -4.17010 39378 ft 507 kts 99°
2026-04-19 03:53 51.77311 -4.05834 39381 ft 507 kts 100°
2026-04-19 03:54 51.75896 -3.94684 39373 ft 507 kts 100°
2026-04-19 03:54 51.74470 -3.83532 39378 ft 507 kts 100°
2026-04-19 03:55 51.73034 -3.72366 39379 ft 507 kts 100°
2026-04-19 03:55 51.71586 -3.61193 39373 ft 507 kts 99°
2026-04-19 03:56 51.70580 -3.49952 39375 ft 506 kts 93°
2026-04-19 03:56 51.69925 -3.38648 39376 ft 505 kts 93°
2026-04-19 03:57 51.69273 -3.27347 39344 ft 505 kts 94°
2026-04-19 03:57 51.68602 -3.16150 39326 ft 505 kts 94°
2026-04-19 03:58 51.67913 -3.04877 39313 ft 505 kts 94°
2026-04-19 03:58 51.67213 -2.93599 39312 ft 505 kts 94°
2026-04-19 03:59 51.66503 -2.82318 39318 ft 505 kts 94°
2026-04-19 03:59 51.65783 -2.71103 39372 ft 505 kts 94°
2026-04-19 04:00 51.65049 -2.59819 39370 ft 505 kts 94°
2026-04-19 04:00 51.64303 -2.48546 39372 ft 505 kts 94°
2026-04-19 04:01 51.63548 -2.37270 39387 ft 507 kts 95°
2026-04-19 04:01 51.62387 -2.20256 39371 ft 509 kts 95°
2026-04-19 04:02 51.61599 -2.08927 39370 ft 509 kts 95°
2026-04-19 04:02 51.60799 -1.97574 39369 ft 509 kts 95°
2026-04-19 04:03 51.59994 -1.86299 39369 ft 512 kts 95°
2026-04-19 04:03 51.59157 -1.74861 39361 ft 513 kts 96°
2026-04-19 04:04 51.57845 -1.63549 39360 ft 514 kts 103°
2026-04-19 04:04 51.55752 -1.52526 39340 ft 515 kts 108°
2026-04-19 04:05 51.53399 -1.41638 39356 ft 516 kts 109°
2026-04-19 04:05 51.51049 -1.30709 39345 ft 517 kts 109°
2026-04-19 04:06 51.48949 -1.19752 39341 ft 516 kts 103°
2026-04-19 04:06 51.47475 -1.08453 39342 ft 516 kts 100°
2026-04-19 04:07 51.46099 -0.97161 39342 ft 516 kts 100°
2026-04-19 04:07 51.44691 -0.85863 39344 ft 516 kts 100°
2026-04-19 04:08 51.43263 -0.74541 39340 ft 516 kts 100°
2026-04-19 04:08 51.41827 -0.63250 39340 ft 516 kts 100°
2026-04-19 04:09 51.40380 -0.51960 39340 ft 516 kts 101°
2026-04-19 04:09 51.38933 -0.40773 39340 ft 516 kts 101°
2026-04-19 04:10 51.37462 -0.29495 39338 ft 516 kts 101°
2026-04-19 04:10 51.35981 -0.18237 39337 ft 516 kts 101°
2026-04-19 04:11 51.34490 -0.06970 39335 ft 516 kts 101°
2026-04-19 04:11 51.33039 0.04266 39331 ft 515 kts 98°
2026-04-19 04:12 51.31946 0.15582 39305 ft 514 kts 97°
2026-04-19 04:12 51.30882 0.26952 39296 ft 514 kts 97°
2026-04-19 04:13 51.29805 0.38275 39289 ft 514 kts 97°
2026-04-19 04:13 51.28720 0.49520 39294 ft 514 kts 97°
2026-04-19 04:14 51.27617 0.60822 39294 ft 514 kts 98°
2026-04-19 04:14 51.26502 0.72110 39299 ft 513 kts 98°
2026-04-19 04:15 51.25379 0.83383 39303 ft 513 kts 98°
2026-04-19 04:15 51.24243 0.94663 39313 ft 514 kts 98°
2026-04-19 04:16 51.23103 1.05909 39312 ft 513 kts 98°
2026-04-19 04:16 51.21944 1.17174 39306 ft 513 kts 98°
2026-04-19 04:17 51.20776 1.28418 39308 ft 513 kts 98°
2026-04-19 04:17 51.19598 1.39670 39296 ft 513 kts 98°
2026-04-19 04:18 51.18412 1.50907 39297 ft 514 kts 99°
2026-04-19 04:18 51.17209 1.62173 39294 ft 514 kts 99°
2026-04-19 04:19 51.15995 1.73426 39289 ft 514 kts 99°
2026-04-19 04:19 51.14779 1.84599 39289 ft 514 kts 99°
2026-04-19 04:20 51.13548 1.95826 39287 ft 512 kts 99°
2026-04-19 04:20 51.12713 2.07093 39285 ft 511 kts 94°
2026-04-19 04:21 51.12154 2.18383 39282 ft 511 kts 94°
2026-04-19 04:21 51.11589 2.29686 39277 ft 511 kts 94°
2026-04-19 04:22 51.11006 2.40984 39275 ft 510 kts 94°
2026-04-19 04:22 51.10406 2.52250 39266 ft 510 kts 94°
2026-04-19 04:23 51.09607 2.63406 39266 ft 510 kts 99°
2026-04-19 04:23 51.08042 2.74502 39258 ft 510 kts 106°
2026-04-19 04:24 51.06056 2.85269 39264 ft 510 kts 107°
2026-04-19 04:24 51.04039 2.96103 39259 ft 510 kts 107°
2026-04-19 04:25 51.02019 3.06930 39250 ft 510 kts 107°
2026-04-19 04:25 50.99993 3.17759 39258 ft 510 kts 107°
2026-04-19 04:26 50.97961 3.28566 39246 ft 510 kts 107°
2026-04-19 04:26 50.95920 3.39371 39251 ft 511 kts 108°
2026-04-19 04:27 50.94209 3.48356 39247 ft 511 kts 108°
2026-04-19 04:27 50.92143 3.59151 39247 ft 511 kts 108°
2026-04-19 04:28 50.90075 3.69945 39245 ft 511 kts 108°
2026-04-19 04:28 50.88012 3.80750 39234 ft 511 kts 108°
2026-04-19 04:29 50.85956 3.91453 39234 ft 510 kts 108°
2026-04-19 04:29 50.83876 4.02210 39243 ft 510 kts 108°
2026-04-19 04:30 50.81779 4.12985 39227 ft 510 kts 108°
2026-04-19 04:30 50.79677 4.23726 39222 ft 511 kts 108°
2026-04-19 04:31 50.77559 4.34480 39229 ft 511 kts 108°
2026-04-19 04:31 50.75432 4.45234 39253 ft 512 kts 108°
2026-04-19 04:32 50.73310 4.55899 39251 ft 512 kts 108°
2026-04-19 04:32 50.71162 4.66627 39250 ft 512 kts 109°
2026-04-19 04:33 50.69006 4.77349 39232 ft 512 kts 109°
2026-04-19 04:33 50.66841 4.88046 39234 ft 512 kts 109°
2026-04-19 04:34 50.64665 4.98743 39233 ft 512 kts 109°
2026-04-19 04:34 50.62481 5.09421 39233 ft 511 kts 109°
2026-04-19 04:35 50.60290 5.20094 39015 ft 511 kts 109°
2026-04-19 04:35 50.59188 5.25434 38484 ft 510 kts 109°
2026-04-19 04:35 50.58093 5.30726 37942 ft 507 kts 109°
2026-04-19 04:36 50.56999 5.35993 37410 ft 504 kts 110°
2026-04-19 04:36 50.55909 5.41225 36895 ft 501 kts 110°
2026-04-19 04:36 50.54821 5.46437 36391 ft 501 kts 110°
2026-04-19 04:36 50.53729 5.51656 35901 ft 502 kts 110°
2026-04-19 04:37 50.52632 5.56875 35429 ft 503 kts 110°
2026-04-19 04:37 50.51543 5.62108 34930 ft 503 kts 109°
2026-04-19 04:37 50.50552 5.67331 34454 ft 504 kts 109°
2026-04-19 04:37 50.49563 5.72634 33935 ft 505 kts 109°
2026-04-19 04:38 50.48557 5.78018 33395 ft 506 kts 108°
2026-04-19 04:38 50.47575 5.83255 32866 ft 507 kts 109°
2026-04-19 04:38 50.46574 5.88582 32336 ft 508 kts 108°
2026-04-19 04:38 50.45569 5.93913 31820 ft 509 kts 108°
2026-04-19 04:39 50.44557 5.99265 31307 ft 514 kts 108°
2026-04-19 04:39 50.43535 6.04663 30792 ft 515 kts 109°
2026-04-19 04:39 50.42516 6.10048 30293 ft 514 kts 109°
2026-04-19 04:39 50.41486 6.15431 29725 ft 514 kts 109°
2026-04-19 04:40 50.40451 6.20813 29148 ft 515 kts 109°
2026-04-19 04:40 50.39415 6.26190 28586 ft 515 kts 109°
2026-04-19 04:40 50.38378 6.31575 28022 ft 516 kts 109°
2026-04-19 04:40 50.37361 6.36947 27478 ft 511 kts 108°
2026-04-19 04:41 50.36550 6.42352 26950 ft 507 kts 103°
2026-04-19 04:41 50.35994 6.47802 26380 ft 502 kts 99°
2026-04-19 04:41 50.35647 6.53233 25872 ft 497 kts 98°
2026-04-19 04:41 50.35341 6.58541 25384 ft 491 kts 98°
2026-04-19 04:42 50.35027 6.63831 25255 ft 486 kts 98°
2026-04-19 04:42 50.34698 6.69117 24860 ft 485 kts 99°
2026-04-19 04:42 50.34363 6.74349 24368 ft 480 kts 99°
2026-04-19 04:42 50.34035 6.79537 23889 ft 476 kts 100°
2026-04-19 04:43 50.33501 6.84609 23352 ft 468 kts 107°
2026-04-19 04:43 50.32590 6.89462 22789 ft 460 kts 114°
2026-04-19 04:43 50.31356 6.94045 22192 ft 453 kts 120°
2026-04-19 04:43 50.30024 6.98480 21640 ft 447 kts 121°
2026-04-19 04:44 50.28692 7.02848 21113 ft 442 kts 121°
2026-04-19 04:44 50.27383 7.07174 20601 ft 437 kts 120°
2026-04-19 04:44 50.26093 7.11453 20090 ft 433 kts 120°
2026-04-19 04:44 50.24817 7.15698 19590 ft 428 kts 120°
2026-04-19 04:45 50.23557 7.19893 19095 ft 424 kts 120°
2026-04-19 04:45 50.22305 7.24057 18610 ft 421 kts 120°
2026-04-19 04:45 50.21059 7.28194 18085 ft 418 kts 120°
2026-04-19 04:45 50.19841 7.32324 17534 ft 416 kts 118°
2026-04-19 04:46 50.18765 7.36536 16958 ft 416 kts 114°
2026-04-19 04:46 50.17745 7.40773 16422 ft 418 kts 114°
2026-04-19 04:46 50.16737 7.45026 15897 ft 417 kts 113°
2026-04-19 04:46 50.15744 7.49220 15396 ft 415 kts 113°
2026-04-19 04:47 50.14742 7.53428 14891 ft 412 kts 113°
2026-04-19 04:47 50.13741 7.57605 14388 ft 408 kts 114°
2026-04-19 04:47 50.12745 7.61746 13918 ft 406 kts 114°
2026-04-19 04:47 50.11708 7.65826 13357 ft 403 kts 117°
2026-04-19 04:48 50.10456 7.69706 12822 ft 398 kts 123°
2026-04-19 04:48 50.08987 7.73335 12287 ft 394 kts 128°
2026-04-19 04:48 50.07432 7.76831 11784 ft 390 kts 127°
2026-04-19 04:48 50.05880 7.80282 11256 ft 386 kts 128°
2026-04-19 04:49 50.04350 7.83696 10755 ft 383 kts 128°
2026-04-19 04:49 50.02831 7.87093 10253 ft 379 kts 128°
2026-04-19 04:49 50.01329 7.90455 9729 ft 377 kts 128°
2026-04-19 04:49 49.99848 7.93806 9212 ft 375 kts 126°
2026-04-19 04:50 49.98498 7.97212 8673 ft 374 kts 122°
2026-04-19 04:50 49.97227 8.00724 8161 ft 372 kts 121°
2026-04-19 04:50 49.95975 8.04229 7637 ft 369 kts 121°
2026-04-19 04:50 49.94726 8.07718 7149 ft 367 kts 121°
2026-04-19 04:51 49.93497 8.11140 6847 ft 358 kts 121°
2026-04-19 04:51 49.92295 8.14485 6591 ft 349 kts 121°
2026-04-19 04:51 49.91122 8.17733 6347 ft 341 kts 121°
2026-04-19 04:51 49.89973 8.20915 6050 ft 333 kts 122°
2026-04-19 04:52 49.88883 8.24055 5779 ft 328 kts 116°
2026-04-19 04:52 49.88302 8.27443 5510 ft 325 kts 97°
2026-04-19 04:52 49.88406 8.30901 5258 ft 319 kts 78°
2026-04-19 04:52 49.89068 8.34160 5059 ft 312 kts 69°
2026-04-19 04:53 49.89837 8.37194 5024 ft 299 kts 67°
2026-04-19 04:53 49.90594 8.40124 4988 ft 286 kts 68°
2026-04-19 04:53 49.91324 8.43002 4992 ft 287 kts 68°
2026-04-19 04:53 49.92037 8.45901 5004 ft 286 kts 68°
2026-04-19 04:54 49.92739 8.48787 5037 ft 286 kts 69°
2026-04-19 04:54 49.93435 8.51683 5037 ft 286 kts 69°
2026-04-19 04:54 49.94135 8.54589 5037 ft 285 kts 69°
2026-04-19 04:54 49.94824 8.57470 5037 ft 285 kts 69°
2026-04-19 04:55 49.95520 8.60374 5028 ft 286 kts 69°
2026-04-19 04:55 49.96211 8.63273 5034 ft 286 kts 69°
2026-04-19 04:55 49.96903 8.66169 4966 ft 285 kts 69°
2026-04-19 04:55 49.97595 8.69075 4851 ft 286 kts 69°
2026-04-19 04:56 49.98283 8.71971 4735 ft 284 kts 69°
2026-04-19 04:56 49.98968 8.74856 4636 ft 284 kts 69°
2026-04-19 04:56 49.99651 8.77746 4530 ft 284 kts 69°
2026-04-19 04:56 50.00335 8.80628 4421 ft 283 kts 68°
2026-04-19 04:57 50.01014 8.83492 4319 ft 282 kts 68°
2026-04-19 04:57 50.01692 8.86362 4203 ft 282 kts 68°
2026-04-19 04:57 50.02366 8.89225 4087 ft 279 kts 68°
2026-04-19 04:57 50.03025 8.92012 4012 ft 268 kts 68°
2026-04-19 04:58 50.03678 8.94603 3984 ft 252 kts 57°
2026-04-19 04:58 50.04828 8.96524 3990 ft 240 kts 24°
2026-04-19 04:58 50.06387 8.97189 4002 ft 229 kts 352°
2026-04-19 04:58 50.07909 8.96678 4025 ft 222 kts 336°
2026-04-19 04:59 50.09274 8.95695 4011 ft 212 kts 320°
2026-04-19 04:59 50.10426 8.94304 4005 ft 209 kts 316°
2026-04-19 04:59 50.11504 8.92793 3997 ft 204 kts 306°
2026-04-19 04:59 50.12021 8.90835 3982 ft 195 kts 271°
2026-04-19 05:00 50.11652 8.88860 4003 ft 193 kts 245°
2026-04-19 05:00 50.10956 8.87065 4023 ft 190 kts 247°
2026-04-19 05:00 50.10365 8.85271 3967 ft 180 kts 252°
2026-04-19 05:00 50.09914 8.83468 3755 ft 176 kts 255°
2026-04-19 05:01 50.09508 8.81692 3570 ft 171 kts 257°
2026-04-19 05:01 50.09109 8.79960 3322 ft 167 kts 256°
2026-04-19 05:01 50.08716 8.78302 3057 ft 159 kts 256°
2026-04-19 05:01 50.08334 8.76711 2834 ft 159 kts 256°
2026-04-19 05:02 50.07954 8.75145 2598 ft 149 kts 257°
2026-04-19 05:02 50.07592 8.73642 2433 ft 147 kts 256°
2026-04-19 05:02 50.07231 8.72151 2259 ft 146 kts 256°
2026-04-19 05:02 50.06873 8.70671 2066 ft 145 kts 257°
2026-04-19 05:03 50.06516 8.69206 1908 ft 144 kts 257°
2026-04-19 05:03 50.06162 8.67763 1670 ft 140 kts 257°
2026-04-19 05:03 50.05821 8.66340 1411 ft 142 kts 256°
2026-04-19 05:03 50.05488 8.64871 1310 ft 144 kts 257°
2026-04-19 05:04 50.05138 8.63388 1116 ft 148 kts 255°
2026-04-19 05:04 50.04755 8.61876 923 ft 151 kts 255°
2026-04-19 05:04 50.04400 8.60335 700 ft 153 kts 253°
2026-04-19 05:04 50.04026 8.58805 475 ft 149 kts 256°
2026-04-19 05:05 50.03692 8.57326 369 ft 125 kts 252°
2026-04-19 05:05 50.03459 8.56348 362 ft 75 kts 250°
2026-04-19 05:05 50.03315 8.55671 358 ft 60 kts 266°
2026-04-19 05:05 50.03344 8.55210 354 ft 30 kts 278°
2026-04-19 05:06 50.03404 8.54928 356 ft 19 kts 304°
2026-04-19 05:06 50.03454 8.54855 358 ft 4 kts 329°
2026-04-19 05:06 50.03474 8.54840 357 ft 0 kts 338°
2026-04-19 05:07 50.03475 8.54839 357 ft 1 kts 336°
2026-04-19 05:08 50.03611 8.54749 360 ft 21 kts 339°
2026-04-19 05:08 50.03833 8.55034 361 ft 29 kts 70°
2026-04-19 05:08 50.03904 8.55342 364 ft 31 kts 69°
2026-04-19 05:09 50.03981 8.55660 362 ft 32 kts 69°
2026-04-19 05:09 50.04027 8.55851 364 ft 17 kts 69°
2026-04-19 05:09 50.04070 8.55959 362 ft 11 kts 23°
2026-04-19 05:09 50.04151 8.55939 362 ft 13 kts 343°
2026-04-19 05:10 50.04239 8.55949 366 ft 13 kts 14°
2026-04-19 05:10 50.04307 8.55949 368 ft 9 kts 347°
2026-04-19 05:10 50.04376 8.55915 367 ft 11 kts 348°
2026-04-19 05:10 50.04463 8.55926 369 ft 12 kts 12°
2026-04-19 05:11 50.04530 8.55963 371 ft 10 kts 38°
2026-04-19 05:11 50.04559 8.56022 370 ft 6 kts 58°
2026-04-19 05:11 50.04588 8.56071 370 ft 6 kts 26°
2026-04-19 05:11 50.04620 8.56072 369 ft 2 kts 347°
2026-04-19 05:12 50.04635 8.56066 366 ft 0 kts 345°
2026-04-19 05:12 50.04640 8.56063 365 ft 1 kts 341°
2026-04-19 05:12 50.04653 8.56056 369 ft 2 kts 341°
2026-04-19 05:12 50.04659 8.56053 371 ft 2 kts 340°
2026-04-19 05:13 50.04666 8.56049 371 ft 0 kts 340°